Location: Utrecht
(52.0907°N, 5.1214°E)
Time: 09:45:00
(UTC+02:00)

MOZHAYETS 4 - Pass Details

Date: 06 July 2022
Orbit: 660 x 679 km, 98.2° (Epoch: 09 August)

Event Time Altitude Azimuth Distance (km) Brightness Sun altitude
Rises 02:29:08 0° 123° (ESE) 3,020 10.9 -14.6°
Reaches altitude 10° 02:31:46 10° 109° (ESE) 2,107 10.2 -14.5°
Maximum altitude 02:35:17 22° 59° (ENE) 1,455 10.0 -14.4°
Drops below altitude 10° 02:38:48 10° 9° (N) 2,109 11.7 -14.3°
Sets 02:41:25 0° 355° (N) 3,023 12.6 -14.2°
